1998-067VF

Last updated on Thu Apr 27 2023 00:02:04 GMT+0000 (Coordinated Universal Time)

1 56314U 98067VF 23116.55963721 .00005465 00000+0 10000-3 0 9993 2 56314 51.6399 224.3836 0007974 256.7309 174.2992 15.51029350 387
UTC large
Height (km)
Speed (km/s)
/
Latitude / Longitude
Inclination (degrees)
Orbital Period (minutes)
Azimuth
Elevation
Range (km)
Doppler Factor

Next 0 passes for location: London (51.5072 / 0.1276)

Sorry there are no passes over London.